This demonstration page uses our WeatherBlox Daily Observations layout. Learn more.

Left ArrowRight Arrow

Hourly Observations for December 25, 2021

Temp ( °F °C ) Dew Point ( °F °C ) Humidity (%) Winds ( mph kmh ) Pressure ( in mb ) Visibility ( mi km ) Precip ( " mm )
12:56 am 00:56 Partly Cloudy 40 4.5 25 -3.8 55 55 NNE 8 13 29.63 1004 10 16 0.00 0.00
1:56 am 01:56 Mostly Clear 38 3.5 24 -4.2 57 57 NNW 12 19 29.66 1005 10 16 0.00 0.00
2:56 am 02:56 Mostly Cloudy 35 1.5 23 -5.2 61 61 N 7 11 29.70 1006 10 16 0.00 0.00
3:56 am 03:56 Clear 31 -0.3 22 -5.7 67 67 N 8 13 29.74 1007 10 16 0.00 0.00
4:56 am 04:56 Clear 30 -0.9 21 -6.1 68 68 NNE 5 7 29.74 1007 10 16 0.00 0.00
5:56 am 05:56 Clear 28 -2 20 -6.6 71 71 NNW 6 9 29.79 1009 10 16 0.00 0.00
6:56 am 06:56 Clear 28 -2.4 19 -7.3 69 69 N 5 7 29.81 1010 10 16 0.00 0.00
7:56 am 07:56 Sunny 28 -2.5 19 -7.4 69 69 NNE 5 7 29.82 1010 10 16 0.00 0.00
8:56 am 08:56 Sunny 30 -0.9 19 -7.1 63 63 N 3 6 29.84 1011 10 16 0.00 0.00
9:56 am 09:56 Sunny 33 0.5 20 -6.6 59 59 E 6 9 29.86 1011 10 16 0.00 0.00
10:56 am 10:56 Sunny 35 1.9 21 -6 56 56 SSE 3 6 29.87 1012 10 16 0.00 0.00
11:56 am 11:56 Sunny 40 4.4 23 -4.9 51 51 SSW 7 11 29.87 1012 10 16 0.00 0.00
12:56 pm 12:56 undefined 44 6.7 28 -2.5 52 52 SSW 8 13 29.84 1010 10 16 0.00 0.00
1:56 pm 13:56 undefined 47 8.1 28 -2.3 48 48 W 3 6 29.84 1010 10 16 0.00 0.00
2:56 pm 14:56 Mostly Sunny 48 9.1 29 -1.6 47 47 WSW 5 7 29.86 1011 10 16 0.00 0.00
3:56 pm 15:56 Sunny 49 9.5 29 -1.8 46 46 WNW 7 11 29.88 1012 10 16 0.00 0.00
4:56 pm 16:56 Sunny 45 7.1 29 -1.8 54 54 WNW 5 7 29.91 1013 10 16 0.00 0.00
5:56 pm 17:56 Clear 39 4.1 28 -2.5 63 63 Calm 29.93 1014 10 16 0.00 0.00
6:56 pm 18:56 Clear 38 3.3 27 -2.9 64 64 Calm 29.94 1014 10 16 0.00 0.00
7:56 pm 19:56 Clear 36 2.3 27 -2.8 69 69 Calm 29.96 1015 10 16 0.00 0.00
8:56 pm 20:56 Clear 33 0.4 26 -3.2 77 77 Calm 29.97 1015 10 16 0.00 0.00
9:56 pm 21:56 Clear 31 -0.5 26 -3.2 82 82 Calm 29.99 1016 10 16 0.00 0.00
10:56 pm 22:56 Clear 29 -1.4 26 -3.1 88 88 Calm 30.01 1016 10 16 0.00 0.00
11:56 pm 23:56 Clear 28 -2 26 -3.4 90 90 SE 3 6 30.01 1016 10 16 0.00 0.00

Powered by AerisWeather